Simultaneous Nadir Overpasses (SNOs) Predictions

Prediction of SNOs between METOP-B and TERRA Satellite Orbit:

Table of predicted SNOs for the next 14.0 days since TLE Epoch: 10/26/2019
Index Date (METOP-B) Time (METOP-B) Lat,Lon (METOP-B) SZA (METOP-B ) Date (TERRA) Time (TERRA) Lat,Lon (TERRA) SZA (TERRA ) Distance(km) Time Diff (sec)
1 10/26/2019 19:39:08 81.27, -68.30 96.89 10/26/2019 19:39:13 81.27, -68.14 96.91 2.67 5
2 10/26/2019 20:29:47 -81.28, 99.87 83.00 10/26/2019 20:28:39 -81.29, 99.82 83.04 1.06 68
3 10/29/2019 14:22:52 -81.27,-169.35 82.20 10/29/2019 14:24:02 -81.28,-169.19 82.14 2.88 70
4 10/29/2019 15:13:31 81.28, -1.46 97.89 10/29/2019 15:13:28 81.28, -1.49 97.88 0.66 3
5 11/01/2019 09:57:16 -81.27,-102.91 81.28 11/01/2019 09:58:18 -81.27,-102.84 81.24 1.35 62
6 11/01/2019 10:47:55 81.28, 64.97 98.81 11/01/2019 10:47:44 81.28, 64.84 98.78 2.26 11
7 11/04/2019 05:31:39 -81.27, -36.49 80.40 11/04/2019 05:32:33 -81.27, -36.43 80.36 1.07 54
8 11/04/2019 06:22:18 81.28, 131.39 99.69 11/04/2019 06:21:59 81.27, 131.22 99.66 2.87 19
9 11/07/2019 01:06:03 -81.27, 29.91 79.55 11/07/2019 01:06:49 -81.27, 30.03 79.51 2.04 46




NCC Satellite Simultaneous Nadir Overpasses (SNOs) Prediction Service
